Powrót do katalogu

STARLINK-36876

AktywnyŁącznośćSSO
NORAD 67902·PAYLOAD·🇺🇸 United States

Wystrzelony Feb 21, 2026 z Vandenberg Space Force Base

Loading…

Następne Przeloty (najbliższe 24 godziny)

TLE

ŚwieżeSource: CelesTrak SupGP

Epoka: Sep 14, 2026, 23:07 UTC

1 67902C 26035Z   26257.96368056 -.00039503  00000+0 -12267-2 0  2573
2 67902  97.2847 189.9361 0001908  96.0818  37.1542 15.33448734    15

Śledź STARLINK-36876 w czasie rzeczywistym z AllMySat

Download on the App Store